Alexandria, MN

10:42 PM CDT on July 28, 2016 (GMT -0500)
Chandler

Weather History for KAXN - March, 2013

Change the Weather History Date:

Thursday, March 21, 2013

  Actual Average Record
Temperature  
Mean Temperature 10 °F -  
Max Temperature 23 °F 37 °F 64 °F (2012)
Min Temperature -2 °F 20 °F -16 °F (1965)
Degree Days  
Heating Degree Days 56    
Moisture  
Dew Point 1 °F    
Average Humidity 70    
Maximum Humidity 87    
Minimum Humidity 52    
Precipitation  
Precipitation 0.00 in - - ()
Sea Level Pressure  
Sea Level Pressure 30.16 in    
Wind  
Wind Speed 3 mph (North)    
Max Wind Speed 7 mph    
Max Gust Speed -    
Visibility 10 miles    
Events      
Averages and records for this station are not official NWS values.
T = Trace of Precipitation, MM = Missing Value Source: NWS Daily Summary

Daily Weather History Graph

Daily Weather History Graph

Search for Another Location

Airport or City:

Trip Planner

Search our weather history database for the weather conditions in past years. The results will help you decide how hot, cold, wet, or windy it might be!

Date:

Astronomy

Mar. 21, 2013 Rise Set
Actual Time 7:22 AM CDT 7:35 PM CDT
Civil Twilight 6:52 AM CDT 8:05 PM CDT
Nautical Twilight 6:17 AM CDT 8:40 PM CDT
Astronomical Twilight 5:41 AM CDT 9:16 PM CDT
Moon 1:51 PM CDT (3/21) 4:00 AM CDT (3/21)
Length of Visible Light 13h 13m
Length of Day
12h 13m
Waxing Gibbous, 69% of the Moon is Illuminated
Mar 21
Waxing Gibbous
Mar 27
Full
Apr 2
Last Quarter
Apr 10
New
Apr 18
First Quarter

Hourly Weather History & Observations

Time (CDT) Temp. Windchill Dew Point Humidity Pressure Visibility Wind Dir Wind Speed Gust Speed Precip Events Conditions
12:53 AM 1.0 °F -11.7 °F -5.1 °F 75% 30.21 in 10.0 mi North 6.9 mph - N/A   Clear
1:53 AM -0.0 °F -9.9 °F -6.0 °F 76% 30.20 in 10.0 mi North 4.6 mph - N/A   Clear
2:53 AM 1.0 °F - -5.1 °F 75% 30.19 in 10.0 mi Calm Calm - N/A   Clear
3:53 AM 1.0 °F -8.7 °F -5.1 °F 75% 30.18 in 10.0 mi NNE 4.6 mph - N/A   Clear
4:53 AM -0.0 °F -7.9 °F -5.1 °F 79% 30.18 in 10.0 mi NNE 3.5 mph - N/A   Clear
5:53 AM -0.0 °F - -5.1 °F 79% 30.17 in 10.0 mi Calm Calm - N/A   Clear
6:53 AM -0.0 °F - -5.1 °F 79% 30.18 in 10.0 mi Calm Calm - N/A   Clear
7:53 AM -2.9 °F -13.3 °F -6.0 °F 87% 30.18 in 10.0 mi ENE 4.6 mph - N/A   Clear
8:53 AM 1.9 °F - -2.0 °F 83% 30.19 in 10.0 mi Calm Calm - N/A   Clear
9:53 AM 8.1 °F - 1.0 °F 73% 30.18 in 10.0 mi Calm Calm - N/A   Clear
10:53 AM 12.9 °F 6.9 °F 1.9 °F 62% 30.18 in 10.0 mi East 3.5 mph - N/A   Clear
11:53 AM 15.1 °F - 3.9 °F 61% 30.17 in 10.0 mi Calm Calm - N/A   Clear
12:53 PM 16.0 °F - 3.9 °F 59% 30.16 in 10.0 mi Calm Calm - N/A   Clear
1:53 PM 19.9 °F - 5.0 °F 52% 30.15 in 10.0 mi Calm Calm - N/A   Clear
2:53 PM 21.0 °F - 6.1 °F 53% 30.13 in 10.0 mi Calm Calm - N/A   Clear
3:53 PM 19.9 °F - 7.0 °F 57% 30.13 in 10.0 mi Calm Calm - N/A   Clear
4:53 PM 19.9 °F - 7.0 °F 57% 30.13 in 10.0 mi Calm Calm - N/A   Clear
5:53 PM 21.9 °F 14.5 °F 7.0 °F 53% 30.12 in 10.0 mi North 5.8 mph - N/A   Clear
6:53 PM 19.9 °F 14.9 °F 5.0 °F 52% 30.12 in 10.0 mi NNW 3.5 mph - N/A   Clear
7:53 PM 14.0 °F 6.5 °F 6.1 °F 71% 30.14 in 10.0 mi West 4.6 mph - N/A   Clear
8:53 PM 12.0 °F 5.9 °F 5.0 °F 73% 30.14 in 10.0 mi WNW 3.5 mph - N/A   Clear
9:53 PM 10.0 °F - 3.9 °F 76% 30.15 in 10.0 mi Calm Calm - N/A   Clear
10:53 PM 7.0 °F - 3.0 °F 84% 30.16 in 10.0 mi Calm Calm - N/A   Clear
11:53 PM 8.1 °F - 3.0 °F 80% 30.16 in 10.0 mi Calm Calm - N/A   Clear